TimeEST,TemperatureF,Dew PointF,Humidity,Sea Level PressureIn,VisibilityMPH,Wind Direction,Wind SpeedMPH,Gust SpeedMPH,PrecipitationIn,Events,Conditions,WindDirDegrees,DateUTC
12:54 AM,8.1,-0.9,67,29.81,-9999.0,North,-9999.0,-,N/A,,Unknown,0,2013-02-18 05:54:00
1:54 AM,7.0,-2.0,67,29.83,-9999.0,North,-9999.0,-,N/A,,Unknown,0,2013-02-18 06:54:00
2:54 AM,6.1,-4.0,63,29.87,-9999.0,North,-9999.0,-,N/A,,Unknown,0,2013-02-18 07:54:00
3:54 AM,5.0,-4.0,66,29.90,-9999.0,North,-9999.0,-,N/A,,Unknown,0,2013-02-18 08:54:00
4:54 AM,5.0,-4.0,66,29.93,-9999.0,North,-9999.0,-,N/A,,Unknown,0,2013-02-18 09:54:00
5:54 AM,5.0,-5.1,63,29.95,-9999.0,North,-9999.0,-,N/A,,Unknown,0,2013-02-18 10:54:00
6:54 AM,5.0,-5.1,63,29.98,-9999.0,North,-9999.0,-,N/A,,Unknown,0,2013-02-18 11:54:00
7:54 AM,6.1,-5.1,60,30.00,-9999.0,North,-9999.0,-,N/A,,Unknown,0,2013-02-18 12:54:00
8:54 AM,7.0,-4.0,61,30.02,-9999.0,North,-9999.0,-,N/A,,Unknown,0,2013-02-18 13:54:00
9:54 AM,10.0,-2.9,56,30.04,-9999.0,North,-9999.0,-,N/A,,Unknown,0,2013-02-18 14:54:00
10:54 AM,14.0,-0.9,52,30.05,-9999.0,North,-9999.0,-,N/A,,Unknown,0,2013-02-18 15:54:00
11:54 AM,17.1,-2.0,43,30.03,-9999.0,North,-9999.0,-,N/A,,Unknown,0,2013-02-18 16:54:00
12:54 PM,18.0,-4.0,38,30.03,-9999.0,North,-9999.0,-,N/A,,Unknown,0,2013-02-18 17:54:00
1:54 PM,19.9,-7.1,30,30.03,-9999.0,North,-9999.0,-,N/A,,Unknown,0,2013-02-18 18:54:00
2:54 PM,21.0,-9.0,26,30.05,-9999.0,North,-9999.0,-,N/A,,Unknown,0,2013-02-18 19:54:00
3:54 PM,21.0,-9.9,25,30.07,-9999.0,North,-9999.0,-,N/A,,Unknown,0,2013-02-18 20:54:00
4:54 PM,19.9,-9.9,26,30.09,-9999.0,North,-9999.0,-,N/A,,Unknown,0,2013-02-18 21:54:00
5:54 PM,19.0,-9.9,27,30.12,-9999.0,North,-9999.0,-,N/A,,Unknown,0,2013-02-18 22:54:00
6:54 PM,18.0,-8.0,31,30.14,-9999.0,North,-9999.0,-,N/A,,Unknown,0,2013-02-18 23:54:00
8:54 PM,10.0,-4.0,53,30.17,-9999.0,North,-9999.0,-,N/A,,Unknown,0,2013-02-19 01:54:00
9:54 PM,8.1,-2.9,61,30.17,-9999.0,North,-9999.0,-,N/A,,Unknown,0,2013-02-19 02:54:00
10:54 PM,6.1,-2.9,67,30.17,-9999.0,North,-9999.0,-,N/A,,Unknown,0,2013-02-19 03:54:00
11:54 PM,5.0,-2.9,70,30.16,-9999.0,North,-9999.0,-,N/A,,Unknown,0,2013-02-19 04:54:00